Rochelle, IL

9:10 AM CDT on August 20, 2017 (GMT -0500)
Rochelle

Weather History for KRPJ - December, 2011

Change the Weather History Date:

Friday, December 2, 2011

  Actual Average (KRFD) Record (KRFD)
Temperature  
Mean Temperature 30 °F -  
Max Temperature 35 °F 37 °F 64 °F (1982)
Min Temperature 24 °F 21 °F -4 °F (1976)
Degree Days  
Heating Degree Days 36    
Moisture  
Dew Point 28 °F    
Average Humidity 87    
Maximum Humidity 100    
Minimum Humidity 75    
Precipitation  
Precipitation 0.01 in - - ()
Sea Level Pressure  
Sea Level Pressure 30.40 in    
Wind  
Wind Speed 7 mph (ESE)    
Max Wind Speed 15 mph    
Max Gust Speed -    
Visibility 9 miles    
Events Snow    
Averages and records for this station are not official NWS values.
T = Trace of Precipitation, MM = Missing Value Source: NWS Daily Summary

Daily Weather History Graph

Daily Weather History Graph

Search for Another Location

Airport or City:

Trip Planner

Search our weather history database for the weather conditions in past years. The results will help you decide how hot, cold, wet, or windy it might be!

Date:

Astronomy

Dec. 02, 2011 Rise Set
Actual Time 7:05 AM CST 4:25 PM CST
Civil Twilight 6:34 AM CST 4:57 PM CST
Nautical Twilight 5:59 AM CST 5:31 PM CST
Astronomical Twilight 5:25 AM CST 6:05 PM CST
Moon 12:10 PM CST (12/2) No Moon Set
Length of Visible Light 10h 22m
Length of Day
9h 20m
First Quarter, 53% of the Moon is Illuminated
Dec 2
First Quarter
Dec 10
Full
Dec 17
Last Quarter
Dec 24
New
Jan 1
First Quarter

Hourly Weather History & Observations

Time (CST) Temp. Windchill Dew Point Humidity Pressure Visibility Wind Dir Wind Speed Gust Speed Precip Events Conditions
12:15 AM 32.0 °F 24.2 °F 32.0 °F 100% 30.33 in 2.5 mi NNW 9.2 mph - N/A Snow Light Snow
12:35 AM 32.0 °F 23.0 °F 32.0 °F 100% 30.34 in 3.0 mi NNW 11.5 mph - 0.01 in Snow Light Snow
12:55 AM 32.0 °F 23.6 °F 32.0 °F 100% 30.34 in 5.0 mi NNW 10.4 mph - 0.01 in Snow Light Snow
1:15 AM 32.0 °F 23.0 °F 30.2 °F 93% 30.34 in 5.0 mi NNW 11.5 mph - N/A   Overcast
1:35 AM 32.0 °F 21.6 °F 30.2 °F 93% 30.35 in 7.0 mi NNW 15.0 mph - N/A   Overcast
1:55 AM 32.0 °F 23.6 °F 30.2 °F 93% 30.35 in 10.0 mi NNW 10.4 mph - N/A   Overcast
2:15 AM 32.0 °F 24.8 °F 30.2 °F 93% 30.36 in 10.0 mi NNW 8.1 mph - N/A   Overcast
2:35 AM 32.0 °F 25.6 °F 28.4 °F 87% 30.36 in 10.0 mi North 6.9 mph - N/A   Scattered Clouds
2:55 AM 30.2 °F 24.3 °F 28.4 °F 93% 30.35 in 10.0 mi North 5.8 mph - N/A   Clear
3:15 AM 30.2 °F 25.4 °F 26.6 °F 86% 30.36 in 10.0 mi NNW 4.6 mph - N/A   Clear
3:35 AM 28.4 °F 22.2 °F 26.6 °F 93% 30.36 in 10.0 mi NNW 5.8 mph - N/A   Clear
3:55 AM 30.2 °F 24.3 °F 26.6 °F 86% 30.37 in 10.0 mi NNW 5.8 mph - N/A   Mostly Cloudy
4:15 AM 28.4 °F 22.2 °F 24.8 °F 86% 30.38 in 10.0 mi NNW 5.8 mph - N/A   Scattered Clouds
4:35 AM 28.4 °F 23.3 °F 24.8 °F 86% 30.38 in 10.0 mi NNW 4.6 mph - N/A   Clear
4:55 AM 26.6 °F 20.0 °F 23.0 °F 86% 30.38 in 10.0 mi North 5.8 mph - N/A   Clear
5:15 AM 26.6 °F 19.1 °F 23.0 °F 86% 30.40 in 10.0 mi NNW 6.9 mph - N/A   Clear
5:35 AM 26.6 °F 20.0 °F 23.0 °F 86% 30.41 in 10.0 mi NNW 5.8 mph - N/A   Clear
5:55 AM 26.6 °F 21.2 °F 23.0 °F 86% 30.41 in 10.0 mi NNW 4.6 mph - N/A   Clear
6:15 AM 26.6 °F 19.1 °F 23.0 °F 86% 30.41 in 10.0 mi North 6.9 mph - N/A   Clear
6:35 AM 24.8 °F 19.1 °F 21.2 °F 86% 30.41 in 10.0 mi North 4.6 mph - N/A   Clear
6:55 AM 24.8 °F 20.5 °F 21.2 °F 86% 30.41 in 10.0 mi NNW 3.5 mph - N/A   Clear
7:15 AM 24.8 °F 20.5 °F 21.2 °F 86% 30.42 in 10.0 mi North 3.5 mph - N/A   Clear
7:35 AM 24.8 °F - 21.2 °F 86% 30.42 in 10.0 mi Calm Calm - N/A   Clear
7:55 AM 26.6 °F - 23.0 °F 86% 30.43 in 10.0 mi Calm Calm - N/A   Clear
8:15 AM 26.6 °F - 23.0 °F 86% 30.43 in 10.0 mi Calm Calm - N/A   Clear
8:55 AM 28.4 °F - 23.0 °F 80% 30.45 in 10.0 mi Calm Calm - N/A   Clear
9:15 AM 30.2 °F 25.4 °F 23.0 °F 75% 30.46 in 10.0 mi ENE 4.6 mph - N/A   Clear
9:35 AM 30.2 °F 26.7 °F 23.0 °F 75% 30.46 in 10.0 mi ENE 3.5 mph - N/A   Clear
9:55 AM 30.2 °F 25.4 °F 24.8 °F 80% 30.46 in 10.0 mi East 4.6 mph - N/A   Clear
10:15 AM 30.2 °F 25.4 °F 24.8 °F 80% 30.47 in 10.0 mi ESE 4.6 mph - N/A   Clear
10:35 AM 32.0 °F 27.5 °F 26.6 °F 80% 30.46 in 10.0 mi ESE 4.6 mph - N/A   Clear
10:55 AM 32.0 °F 28.7 °F 26.6 °F 80% 30.46 in 10.0 mi ESE 3.5 mph - N/A   Clear
11:15 AM 32.0 °F 28.7 °F 28.4 °F 87% 30.45 in 10.0 mi SE 3.5 mph - N/A   Clear
11:35 AM 32.0 °F 28.7 °F 28.4 °F 87% 30.44 in 10.0 mi ESE 3.5 mph - N/A   Clear
11:55 AM 33.8 °F - 28.4 °F 81% 30.43 in 10.0 mi Calm Calm - N/A   Clear
12:15 PM 33.8 °F 28.6 °F 30.2 °F 87% 30.44 in 10.0 mi SSE 5.8 mph - N/A   Scattered Clouds
12:35 PM 33.8 °F 29.6 °F 30.2 °F 87% 30.43 in 7.0 mi SE 4.6 mph - N/A   Scattered Clouds
12:55 PM 35.6 °F 29.9 °F 30.2 °F 81% 30.43 in 10.0 mi South 6.9 mph - N/A   Scattered Clouds
1:15 PM 35.6 °F 29.9 °F 30.2 °F 81% 30.42 in 10.0 mi SSE 6.9 mph - N/A   Scattered Clouds
1:35 PM 35.6 °F 28.0 °F 30.2 °F 81% 30.42 in 10.0 mi South 10.4 mph - N/A   Mostly Cloudy
1:55 PM 33.8 °F 26.4 °F 30.2 °F 87% 30.41 in 10.0 mi SSE 9.2 mph - N/A   Mostly Cloudy
2:15 PM 33.8 °F 29.6 °F 30.2 °F 87% 30.40 in 10.0 mi SSE 4.6 mph - N/A   Scattered Clouds
2:35 PM 35.6 °F 30.7 °F 30.2 °F 81% 30.39 in 10.0 mi SSE 5.8 mph - N/A   Scattered Clouds
2:55 PM 35.6 °F 29.2 °F 30.2 °F 81% 30.39 in 10.0 mi SSE 8.1 mph - N/A   Scattered Clouds
3:15 PM 35.6 °F 28.6 °F 30.2 °F 81% 30.39 in 10.0 mi South 9.2 mph - N/A   Scattered Clouds
3:35 PM 35.6 °F 29.2 °F 32.0 °F 87% 30.38 in 10.0 mi SE 8.1 mph - N/A   Mostly Cloudy
3:55 PM 35.6 °F 27.1 °F 30.2 °F 81% 30.39 in 10.0 mi SSE 12.7 mph - N/A   Overcast
4:15 PM 33.8 °F 23.9 °F 30.2 °F 87% 30.38 in 10.0 mi SSE 15.0 mph - N/A   Overcast
4:35 PM 33.8 °F 25.8 °F 30.2 °F 87% 30.39 in 10.0 mi South 10.4 mph - N/A   Overcast
4:55 PM 32.0 °F 24.8 °F 30.2 °F 93% 30.38 in 10.0 mi South 8.1 mph - N/A   Scattered Clouds
5:15 PM 32.0 °F 24.8 °F 28.4 °F 87% 30.38 in 10.0 mi South 8.1 mph - N/A   Clear
5:35 PM 32.0 °F 26.4 °F 30.2 °F 93% 30.37 in 10.0 mi SE 5.8 mph - N/A   Scattered Clouds
5:55 PM 32.0 °F 25.6 °F 30.2 °F 93% 30.37 in 10.0 mi SSE 6.9 mph - N/A   Scattered Clouds
6:15 PM 32.0 °F 26.4 °F 28.4 °F 87% 30.38 in 7.0 mi SSE 5.8 mph - N/A   Scattered Clouds
6:35 PM 32.0 °F 24.8 °F 28.4 °F 87% 30.38 in 7.0 mi SSE 8.1 mph - N/A   Clear
6:55 PM 32.0 °F 24.2 °F 30.2 °F 93% 30.38 in 10.0 mi SSE 9.2 mph - N/A   Scattered Clouds
7:15 PM 32.0 °F 24.2 °F 30.2 °F 93% 30.37 in 10.0 mi SSE 9.2 mph - N/A   Scattered Clouds
7:35 PM 32.0 °F 25.6 °F 30.2 °F 93% 30.36 in 10.0 mi SSE 6.9 mph - N/A   Clear
7:55 PM 32.0 °F 25.6 °F 30.2 °F 93% 30.35 in 10.0 mi SSE 6.9 mph - N/A   Clear
8:15 PM 32.0 °F 24.8 °F 30.2 °F 93% 30.34 in 10.0 mi SSE 8.1 mph - N/A   Clear
8:35 PM 32.0 °F 24.2 °F 30.2 °F 93% 30.34 in 10.0 mi SSE 9.2 mph - N/A   Clear
8:55 PM 32.0 °F 24.2 °F 30.2 °F 93% 30.34 in 10.0 mi South 9.2 mph - N/A   Clear
9:15 PM 32.0 °F 23.0 °F 30.2 °F 93% 30.34 in 7.0 mi South 11.5 mph - N/A   Clear
9:35 PM 32.0 °F 23.0 °F 30.2 °F 93% 30.33 in 7.0 mi SSE 11.5 mph - N/A   Clear
9:55 PM 33.8 °F 24.8 °F 30.2 °F 87% 30.32 in 7.0 mi South 12.7 mph - N/A   Clear
10:15 PM 33.8 °F 23.9 °F 32.0 °F 93% 30.32 in 7.0 mi South 15.0 mph - N/A   Clear
10:35 PM 33.8 °F 23.5 °F 32.0 °F 93% 30.31 in 7.0 mi South 16.1 mph - N/A   Clear
10:55 PM 33.8 °F 24.3 °F 32.0 °F 93% 30.31 in 7.0 mi South 13.8 mph - N/A   Mostly Cloudy
11:15 PM 33.8 °F 23.9 °F 32.0 °F 93% 30.30 in 5.0 mi South 15.0 mph 18.4 mph N/A   Overcast
11:35 PM 33.8 °F 25.8 °F 32.0 °F 93% 30.30 in 5.0 mi South 10.4 mph - N/A   Overcast
11:55 PM 33.8 °F 24.8 °F 32.0 °F 93% 30.29 in 5.0 mi South 12.7 mph - N/A   Overcast